Weather History for Pittsfield, MA

Change the Weather History Date:

Tuesday, February 12, 2013

  Actual Average Record
Temperature  
Mean Temperature 32 °F 23 °F  
Max Temperature 35 °F 31 °F 54 °F (1999)
Min Temperature 29 °F 15 °F -14 °F (1962)
Degree Days  
Heating Degree Days 33 42  
Month to date heating degree days 526 517  
Since 1 July heating degree days 4342 4742  
Cooling Degree Days 0 0  
Month to date cooling degree days 0 0  
Year to date cooling degree days 0 0  
Moisture  
Dew Point 25 °F    
Average Humidity 73    
Maximum Humidity 82    
Minimum Humidity 63    
Precipitation  
Precipitation 0.00 in 0.11 in 0.60 in (1963)
Month to date precipitation 0.57 1.08  
Year to date precipitation 2.84 4.00  
Sea Level Pressure  
Sea Level Pressure 29.74 in    
Wind  
Wind Speed 12 mph (WNW)    
Max Wind Speed 30 mph    
Max Gust Speed 43 mph    
Visibility 10 miles    
Events      
T = Trace of Precipitation, MM = Missing Value Source: NWS Daily Summary

Daily Weather History Graph

Daily Weather History Graph

Search for Another Location

Airport:

Trip Planner

Search our weather history database for the weather conditions in past years. The results will help you decide how hot, cold, wet, or windy it might be!

Date:

Astronomy

Feb. 12, 2013 Rise Set
Actual Time 6:53 AM EST 5:21 PM EST
Civil Twilight 6:24 AM EST 5:50 PM EST
Nautical Twilight 5:51 AM EST 6:23 PM EST
Astronomical Twilight 5:18 AM EST 6:56 PM EST
Moon 7:45 AM EST (2/12) 8:24 PM EST (2/12)
Length of Visible Light 11h 26m
Length of Day
10h 28m
Waxing Crescent, 7% of the Moon is Illuminated
Feb 12
Waxing Crescent
Feb 17
First Quarter
Feb 25
Full
Mar 4
Last Quarter
Mar 11
New

Hourly Weather History & Observations

Time (EST) Temp. Windchill Dew Point Humidity Pressure Visibility Wind Dir Wind Speed Gust Speed Precip Events Conditions
12:08 AM 33.8 °F 27.7 °F 28.4 °F 81% 29.64 in 10.0 mi WNW 6.9 mph - N/A   Overcast
12:54 AM 33.1 °F 24.4 °F 28.0 °F 82% 29.65 in 10.0 mi WNW 11.5 mph 18.4 mph N/A   Overcast
1:54 AM 33.1 °F 25.5 °F 28.0 °F 82% 29.66 in 10.0 mi WNW 9.2 mph - N/A   Overcast
2:36 AM 33.8 °F 25.8 °F 26.6 °F 75% 29.65 in 10.0 mi West 10.4 mph - N/A   Overcast
2:54 AM 33.1 °F 26.1 °F 27.0 °F 78% 29.66 in 10.0 mi West 8.1 mph - N/A   Overcast
3:16 AM 33.8 °F 26.4 °F 26.6 °F 75% 29.65 in 10.0 mi WNW 9.2 mph - N/A   Overcast
3:29 AM 33.8 °F 25.8 °F 26.6 °F 75% 29.65 in 10.0 mi West 10.4 mph - N/A   Overcast
3:54 AM 33.1 °F 26.1 °F 27.0 °F 78% 29.66 in 10.0 mi West 8.1 mph - N/A   Overcast
4:54 AM 34.0 °F 26.6 °F 26.1 °F 73% 29.67 in 10.0 mi WNW 9.2 mph - N/A   Overcast
5:10 AM 33.8 °F 25.8 °F 26.6 °F 75% 29.66 in 10.0 mi West 10.4 mph - N/A   Overcast
5:54 AM 34.0 °F 25.5 °F 26.1 °F 73% 29.68 in 10.0 mi WNW 11.5 mph - N/A   Overcast
6:24 AM 33.8 °F 24.8 °F 26.6 °F 75% 29.67 in 10.0 mi West 12.7 mph - N/A   Overcast
6:54 AM 34.0 °F 25.0 °F 25.0 °F 70% 29.69 in 10.0 mi WNW 12.7 mph - N/A   Overcast
7:54 AM 34.0 °F 26.0 °F 25.0 °F 70% 29.71 in 10.0 mi West 10.4 mph - N/A   Overcast
8:54 AM 34.0 °F 23.8 °F 24.1 °F 67% 29.73 in 10.0 mi WNW 16.1 mph - 0.01 in   Overcast
9:54 AM 34.0 °F 23.4 °F 24.1 °F 67% 29.74 in 10.0 mi WNW 17.3 mph 32.2 mph N/A   Overcast
10:33 AM 33.8 °F 21.9 °F 24.8 °F 70% 29.73 in 10.0 mi West 21.9 mph 34.5 mph N/A   Overcast
10:54 AM 34.0 °F 22.1 °F 25.0 °F 70% 29.75 in 10.0 mi WNW 21.9 mph 41.4 mph N/A   Overcast
11:54 AM 34.0 °F 22.1 °F 25.0 °F 70% 29.76 in 10.0 mi WNW 21.9 mph 36.8 mph N/A   Overcast
12:54 PM 34.0 °F 22.4 °F 25.0 °F 70% 29.77 in 10.0 mi WNW 20.7 mph 35.7 mph N/A   Overcast
1:54 PM 34.0 °F 22.7 °F 25.0 °F 70% 29.78 in 10.0 mi West 19.6 mph 28.8 mph N/A   Overcast
2:54 PM 33.1 °F 23.4 °F 25.0 °F 72% 29.81 in 10.0 mi West 13.8 mph 23.0 mph N/A   Overcast
3:54 PM 33.1 °F 25.5 °F 25.0 °F 72% 29.80 in 10.0 mi WNW 9.2 mph - N/A   Overcast
4:54 PM 32.0 °F 23.6 °F 24.1 °F 73% 29.79 in 10.0 mi NNW 10.4 mph 23.0 mph N/A   Overcast
5:10 PM 32.0 °F 25.6 °F 23.0 °F 69% 29.77 in 10.0 mi Variable 6.9 mph 16.1 mph N/A   Overcast
5:17 PM 32.0 °F 25.6 °F 23.0 °F 69% 29.77 in 10.0 mi WNW 6.9 mph 16.1 mph N/A   Overcast
5:54 PM 32.0 °F 25.6 °F 23.0 °F 69% 29.81 in 10.0 mi Variable 6.9 mph - N/A   Overcast
6:54 PM 32.0 °F 23.6 °F 23.0 °F 69% 29.86 in 10.0 mi West 10.4 mph - N/A   Overcast
7:54 PM 32.0 °F 22.5 °F 21.9 °F 66% 29.88 in 10.0 mi West 12.7 mph 20.7 mph N/A   Overcast
8:54 PM 30.9 °F 19.4 °F 19.0 °F 61% 29.88 in 10.0 mi WNW 17.3 mph 23.0 mph N/A   Overcast
9:54 PM 30.9 °F 23.5 °F 19.9 °F 64% 29.86 in 10.0 mi West 8.1 mph 20.7 mph N/A   Overcast
10:54 PM 30.0 °F 23.2 °F 19.9 °F 66% 29.86 in 10.0 mi West 6.9 mph - N/A   Overcast
11:54 PM 30.0 °F 26.5 °F 19.9 °F 66% 29.86 in 10.0 mi Variable 3.5 mph - N/A   Overcast